Location: Campillo
(40.8621°N, 4.2488°W)
Time: 11:27:03
(UTC+00:00)

Cosmos 2154 Rocket - Pass Details

Date: 02 October 2021
Orbit: 965 x 997 km, 82.9° (Epoch: 15 October)

Event Time Altitude Azimuth Distance (km) Brightness Sun altitude
Rises 05:13:13 0° 357° (N) 3,696 7.1 -12.4°
Reaches altitude 10° 05:15:50 10° 2° (N) 2,739 6.5 -11.9°
Maximum altitude 05:21:56 52° 78° (ENE) 1,202 5.0 -10.8°
Drops below altitude 10° 05:27:57 10° 154° (SSE) 2,703 6.6 -9.7°
Sets 05:30:30 0° 159° (SSE) 3,643 7.2 -9.2°
